    Observer details:
    104 San Marcello Pistoiese.  Observers P. Bacci, M. Maestripieri.  Measurers P. 
       Bacci, L. Tesi, G. Fagioli.  0.60-m reflector + CCD.
    160 Castelmartini.  Observers M. Jaeger, E. Prosperi, S. Prosperi.  Measurer E. 
       Prosperi.  0.35-m f/10 Schmidt-Cassegrain + CCD.
    203 GiaGa Observatory.  Observers S. Foglia, G. Galli.  Measurer G. Galli.  
        0.36-m f/5.76 Schmidt-Cassegrain + CCD.
    204 Schiaparelli Observatory.  Observer L. Buzzi.  0.84-m f/3.5 reflector + CCD.
    595 Farra d'Isonzo.  Observer E. Pettarin.  0.40-m f/5.15 reflector + CCD.
    850 Cordell-Lorenz Observatory, Sewanee.  Observer D. T. Durig.  0.3-m f/5.0 
       Schmidt-Cassegrain + CCD.
    958 Observatoire de Dax.  Observer P. Dupouy.  0.51-m f/6 reflector + CCD.
    C77 Bernezzo Observatory.  Observer A. Mantero.  0.25-m f/4.0 reflector + CCD.
    C95 SATINO Remote Observatory, Haute Provence.  Observer J. Jahn.  0.60-m f/3.2 
       Newtonian reflector + CCD.
    H21 Astronomical Research Observatory, Westfield.  Observer R. Holmes.  
        Measurers S. Foglia, L. Buzzi, T. Linder, R. Holmes.  0.76-m f/3.0 
       astrograph + CCD.
    I41 Palomar Mountain--ZTF.  Observers B. T. Bolin, K. P. Deshmukh, J. 
       Southworth, Z. T. F. Collaboration.  Measurers B. T. Bolin, C. M. 
       Copperwheat, D. A. Duev, H.-W. Lin, F. J. Masci, Q.-Z. Ye.  1.2-m f/2.4 
       Schmidt.
    I52 Steward Observatory, Mt. Lemmon Station.  Observer D. C. Fuls.  Measurers 
       E. J. Christensen, G. A. Farneth, D. C. Fuls, A. R. Gibbs, A. D. Grauer, H. 
       Groeller, R. A. Kowalski, S. M. Larson, G. J. Leonard, T. A. Pruyne, D. 
       Rankin, R. L. Seaman, F. C. Shelly, K. W. Wierzchos.  1.0-m reflector + CCD.
    I93 St Pardon de Conques.  Observer F. Losse.  0.40-m f/3.7 reflector + CCD.
    K61 Rokycany Observatory.  Observer M. Adamovsky.  0.51-m f/6.8 reflector + CCD.
    K63 G. Pascoli Observatory, Castelvecchio Pascoli.  Observers R. Bacci, P. 
       Bacci.  Measurer R. Bacci.  0.4-m f/3.2 Newtonian reflector + CCD.
    L01 Visnjan Observatory, Tican.  Observers K. Korlevic, F. Valentine.  Measurer 
       K. Korlevic.  1.0-m f/2.9 reflector + CCD.
    V01 Mountainville Observatory, Alpine.  Observer B. Sheets.  0.35-m f/11.0 
       Schmidt-Cassegrain + CCD.
    W34 Squirrel Valley Observatory, Columbus.  Observer R. L. Flynn.  0.35-m f/1.9 
       Schmidt-Cassegrain + CCD.
    
    First and last observations above in comparison with prediction:
    Residuals in seconds of arc (or zero decimals in degrees), reference and Delta-T
    200214 I41   36-   27-    200215 K61   49-   37-    MPO435642   -2.12 days
    
    Orbital elements:
    2018 CW2                                                 Earth MOID = 0.0044 AU
    Epoch 2020 May 31.0 TT = JDT 2459000.5                  Veres
    M  32.52189              (2000.0)            P               Q
    n   1.48125752     Peri.  327.19615     +0.48957513     +0.87102161
    a   0.7621650      Node   332.05421     -0.78024792     +0.41689120
    e   0.4210473      Incl.    4.95366     -0.38926775     +0.25985205
    P   0.67           H   25.8           G   0.15           U   5
    Residuals in seconds of arc
    180209 G96  0.6+  0.2-    200214 I41  0.4+  0.9+    200215 104  0.2+  0.4-
    180209 G96  0.1+  0.3-    200214 L01  0.0   0.1-    200215 104  0.2+  0.2-
    180209 G96  0.5+  0.7-    200214 L01  0.1-  0.0     200215 104  0.3+  0.4-
    180209 G96  0.9+  0.1+    200214 L01  0.1-  0.1+    200215 104  0.2+  0.5-
    180209 I52  1.5-  0.6-    200214 L01  0.4-  0.0     200215 C95  0.3+  0.2-
    180209 I52  1.1-  0.2-    200214 L01  0.3+  0.4-    200215 W34  0.4-  0.1+
    180209 I52  1.6-  0.1-    200214 L01  0.0   0.4-    200215 W34  0.8-  0.4-
    180209 I52  1.0-  0.5-    200214 L01  0.1+  0.2-    200215 V01  0.2+  0.3-
    180209 L01  0.6+  0.2+    200214 L01  0.2-  0.2-    200215 C95  0.1-  0.2-
    180209 L01  0.3-  0.3+    200214 L01  0.1+  0.4-    200215 W34  0.9-  0.3-
    180209 L01  0.2+  0.3-    200214 I93  0.1+  0.2-    200215 W34  1.0-  0.3-
    180210 J95  0.3+  0.1+    200214 I93  0.0   0.2-    200215 V01  0.1-  0.5+
    180210 J95  0.3+  0.2-    200214 C77  0.8-  0.2+    200215 W34  0.4-  0.1+
    180210 J95  0.7+  0.5-    200214 I93  0.1+  0.2-    200215 C95  0.1-  0.1-
    180210 I52  0.6-  0.1+    200214 C77  0.5+  0.1-    200215 850  0.0   1.6+
    180210 I52  1.6-  0.2-    200214 C77  0.3-  0.5+    200215 V01  0.3-  0.1-
    180210 I52  1.0-  0.6+    200214 203  0.1-  0.3-    200215 850  1.0-  0.2+
    180210 587  1.1+  1.6+    200214 958  0.4-  0.2+    200215 V01  0.1+  0.1+
    180210 587  0.2+  1.3+    200214 203  0.0   0.4-    200215 H21  0.0   0.4-
    180210 587  0.8+  0.8+    200214 958  0.1-  0.5-    200215 H21  0.2+  0.3-
    180210 104  0.4-  0.2+    200214 958  0.1+  0.2-    200215 H21  0.3+  0.3-
    180210 104  0.0   0.7-    200214 958  0.6-  0.5-    200215 I52  0.2+  0.5-
    180210 204  0.1+  0.1-    200214 203  0.1+  0.6-    200215 H21  0.2+  0.5-
    180210 204  0.1+  0.2-    200214 204  0.2-  0.2-    200215 I52  0.4+  0.9-
    180211 204  0.2-  0.1+    200214 K63  0.0   0.4+    200215 I52  0.4+  0.5-
    180211 I52  2.0-  0.3+    200214 K63  1.4-  1.0+    200215 I52  0.2+  0.4-
    180211 I52  2.7-  0.3+    200214 204  0.2-  0.3-    200215 H21  0.2+  0.3-
    180211 I52  1.1-  0.5+    200214 K63  1.0-  0.3+    200215 I41  0.3+  1.0+
    180211 J95  0.5+  0.4+    200214 595  0.1-  0.3-    200215 I41  0.9-  1.1+
    180211 J95  0.4+  0.2+    200214 204  0.3-  0.1-    200215 I41  1.1+  0.9+
    180211 J95  0.2-  0.1-    200214 595  0.2+  0.5-    200215 I41  0.7-  0.7+
    200214 I41  0.9+  0.0     200214 595  0.1-  0.1+    200215 I41  1.5+  0.4+
    200214 I41  0.6-  0.0     200214 595  0.0   0.3-    200215 I41  1.0+  0.2-
    200214 I41  1.3+  0.2-    200214 160  0.6-  0.1-    200215 I41  0.9+  0.5+
    200214 I41  0.9+  0.2-    200214 160  0.1-  0.2+    200215 I41  0.9+  0.2+
    200214 I41  0.6+  0.6+    200214 160  0.1-  0.2-    200215 K61  0.3+  0.5+
    200214 I41  0.1+  0.3+    200214 160  0.3-  0.5-    200215 K61  0.1+  0.6+
    200214 I41  0.4+  1.1+    200214 160  0.3-  0.0     200215 K61  0.4-  0.2+
    
    Ephemeris:
    2018 CW2                 a,e,i = 0.76, 0.42, 5                   q = 0.4413
    Date    TT    R. A. (2000) Decl.     Delta      r    Elong.  Phase     V
    2020 01 16    12 21 00.3 +11 34 12   0.1973  1.0797   114.2    56.2    24.5
    ...
    2020 01 31    12 21 55.8 +13 52 22   0.1070  1.0560   129.2    46.2    22.8
    ...
    2020 02 08    12 06 00.2 +18 51 29   0.05990 1.0335   141.0    36.9    21.3
    ...
    2020 02 14    11 00 22.8 +32 56 29   0.02732 1.0120   154.3    25.1    19.2
    2020 02 15    10 25 39.8 +38 11 21   0.02282 1.0080   153.7    25.7    18.8
    2020 02 16    09 26 56.0 +44 21 23   0.01911 1.0039   147.8    31.7    18.6
    ...
    2020 02 22    02 18 46.9 +17 12 49   0.02980 0.9771    65.6   112.8    22.5
    ...
    2020 03 01    01 22 09.4 +01 54 47   0.07384 0.9351    39.5   137.6    26.5
    ...
    2020 03 16    00 54 01.2 -03 43 44   0.1670  0.8371    17.6   158.9    32.1
    
    A. U. Tomatic                (C) Copyright 2020 MPC           M.P.E.C. 2020-C139
    


    Read MPEC 2020-C138 Read MPEC 2020-C140


    MPEC number:

    Enter an MPEC number in one of the following forms:

    • 1997-B01 (the full form)
    • J97B01 (the packed version of the full form)
    • B01 (the abbreviated form)